Regional Weather Roundup
Issued by NWS

Home | Current Version | Previous Version | Graphics & Text | Print | Product List | Glossary On
Versions: 1 2 3 4 5 6 7 8 9 10 11 12 13 14 15 16 17 18 19 20 21 22 23 24 25 26 27 28 29 30 31 32 33 34 35 36 37 38 39 40 41 42 43 44 45 46 47 48 49 50
000
ASUS43 KBIS 090810
RWRND

NORTH DAKOTA REGIONAL WEATHER ROUNDUP
NATIONAL WEATHER SERVICE BISMARCK ND
200 AM CST TUE FEB 09 2016

NOTE: "FAIR" INDICATES FEW OR NO CLOUDS BELOW 12,000 FEET WITH NO
SIGNIFICANT WEATHER AND/OR OBSTRUCTIONS TO VISIBILITY.


NDZ001>003-009>011-017-090900-
NORTHWEST NORTH DAKOTA

CITY           SKY/WX    TMP DP  RH WIND       PRES   REMARKS
WILLISTON      CLOUDY    29  21  72 S3        30.24S
MINOT          CLOUDY    25  14  63 SW6       30.25F WCI  18
MINOT AFB      CLOUDY    23  19  84 CALM      30.23F
$$

NDZ018>021-031>035-040>046-090900-
SOUTHWEST NORTH DAKOTA

CITY           SKY/WX    TMP DP  RH WIND       PRES   REMARKS
BISMARCK       CLOUDY    26  11  52 N9        30.29R WCI  17
DICKINSON      CLOUDY    28  18  66 CALM      30.20F
GARRISON         N/A     22  14  71 CALM      30.27S
HETTINGER ARPT CLOUDY    27  16  63 CALM      30.22F
$$

NDZ004>008-012>016-024-026-027-054-090900-
NORTHEAST NORTH DAKOTA

CITY           SKY/WX    TMP DP  RH WIND       PRES   REMARKS
GRAND FORKS    PTCLDY     4  -1  80 NW9       30.27R WCI -10
GRND FRKS AFB  MOCLDY     4  -2  75 NW9       30.27R WCI -10
DEVILS LAKE    CLOUDY     8   5  87 CALM      30.24F
$$

NDZ022-023-025-028>030-036>039-047>053-090900-
SOUTHEAST NORTH DAKOTA

CITY           SKY/WX    TMP DP  RH WIND       PRES   REMARKS
FARGO          CLEAR      6   0  76 N15       30.25R WCI -12
JAMESTOWN      CLEAR      8   4  83 N8        30.25R WCI  -4
$$




USA.gov is the U.S. government's official web portal to all federal, state and local government web resources and services.